Покча

Россия / Республика Коми     62°56′40″N   56°07′10″E
темп.,
°C
ветер,
м/с
пор.,
м/с
влажн.,
%
обл.,
%
осадки,
мм/ч
давл.,
гПа
погр.,
м
7 марта, вс
вс700:00−24зюз129983 0.0 100720
03:00−23юз129889 0.1 100720
06:00−22юз129889 0.1 100766
09:00−19ю129288 0.1 1007271
12:00−17ю1284100 0.0 1007706
15:00−16ю1287100 0.1 1007491
18:00−20юв2298100 0.1 100723
21:00−22ююв1299100 0.1 100720
8 марта, пн
пн800:00−24юв1110077 0.0 100720
03:00−24вюв1110086 0.1 100620
06:00−26в1110097 0.0 100619
09:00−21св229798 0.1 1006221
12:00−18св2390100 0.0 1004501
15:00−18ссв3491100 0.1 1005545
18:00−23с259987 0.0 100595
21:00−25с389985 0.0 1006234
9 марта, вт
вт900:00−29с389889 0.0 1007216
03:00−32ссз389784 0.0 1008213
06:00−34ссз389768 0.0 1010234
09:00−31ссз479577 0.0 1011315
12:00−27ссз479292 0.0 1013462
15:00−25ссз479195 0.0 1014557
18:00−29сз239894 0.0 101671
21:00−31сз239748 0.0 101841
10 марта, ср
ср1000:00−32сз23980 0.0 101837
03:00−33зсз22980 0.0 101821
06:00−32зсз229810 0.0 101724
09:00−25з249332 0.0 1017253
12:00−20зюз259399 0.1 1015427
15:00−18зюз369099 0.1 1013484
18:00−19з31096100 0.1 1012566
21:00−18з2795100 0.2 1012277
11 марта, чт
чт1100:00−18з1298100 0.1 101084
03:00−18юз1198100 0.3 100920
06:00−17ююз1197100 0.1 100922
09:00−12зюз1494100 0.5 1010290
12:00−8сз5988100 0.3 1010813
15:00−8зсз41082100 0.3 1010787
18:00−11зсз4138769 0.0 1011514
21:00−13зсз4128962 0.0 1012518